TimeCDT,TemperatureF,Dew PointF,Humidity,Sea Level PressureIn,VisibilityMPH,Wind Direction,Wind SpeedMPH,Gust SpeedMPH,PrecipitationIn,Events,Conditions,WindDirDegrees,DateUTC
12:53 AM,79.0,66.9,66,29.85,10.0,SSE,5.8,-,N/A,,Clear,160,2013-06-27 05:53:00
1:53 AM,80.1,70.0,71,29.83,10.0,South,9.2,-,N/A,,Clear,190,2013-06-27 06:53:00
2:53 AM,81.0,72.0,74,29.84,10.0,South,9.2,-,N/A,,Clear,190,2013-06-27 07:53:00
3:53 AM,77.0,71.1,82,29.84,9.0,South,5.8,-,N/A,,Clear,190,2013-06-27 08:53:00
4:53 AM,75.0,70.0,84,29.84,9.0,South,3.5,-,N/A,,Clear,180,2013-06-27 09:53:00
5:53 AM,75.9,71.1,85,29.85,9.0,Calm,Calm,-,N/A,,Clear,0,2013-06-27 10:53:00
6:53 AM,75.9,71.1,85,29.86,8.0,SSE,5.8,-,N/A,,Clear,150,2013-06-27 11:53:00
7:53 AM,80.1,72.0,76,29.87,9.0,SSE,8.1,-,N/A,,Clear,160,2013-06-27 12:53:00
8:53 AM,86.0,72.0,63,29.88,10.0,SSW,9.2,-,N/A,,Clear,210,2013-06-27 13:53:00
9:53 AM,90.0,71.1,54,29.90,10.0,SW,5.8,-,N/A,,Clear,230,2013-06-27 14:53:00
10:53 AM,93.0,72.0,50,29.88,10.0,Calm,Calm,-,N/A,,Clear,0,2013-06-27 15:53:00
11:53 AM,96.1,72.0,46,29.88,10.0,SSE,5.8,-,N/A,,Clear,160,2013-06-27 16:53:00
12:53 PM,100.0,73.0,42,29.86,10.0,SE,10.4,-,N/A,,Clear,130,2013-06-27 17:53:00
1:53 PM,102.9,68.0,32,29.83,10.0,South,8.1,17.3,N/A,,Clear,190,2013-06-27 18:53:00
2:53 PM,105.1,68.0,30,29.82,10.0,South,11.5,19.6,N/A,,Clear,180,2013-06-27 19:53:00
3:53 PM,105.1,64.0,26,29.78,10.0,SSE,9.2,19.6,N/A,,Clear,160,2013-06-27 20:53:00
4:44 PM,100.4,66.2,33,29.83,2.0,SE,6.9,-,N/A,Thunderstorm,Unknown,130,2013-06-27 21:44:00
4:53 PM,100.9,66.0,32,29.76,10.0,SE,6.9,-,N/A,Thunderstorm,Thunderstorm,130,2013-06-27 21:53:00
5:30 PM,84.2,59.0,42,29.89,9.0,West,28.8,50.6,N/A,Thunderstorm,Thunderstorm,280,2013-06-27 22:30:00
5:53 PM,84.9,57.0,38,29.78,10.0,SSW,16.1,-,N/A,Thunderstorm,Thunderstorm,200,2013-06-27 22:53:00
6:00 PM,80.6,60.8,51,29.84,10.0,SSW,13.8,-,N/A,Thunderstorm,Thunderstorm,200,2013-06-27 23:00:00
6:27 PM,86.0,57.2,37,29.84,10.0,NNE,17.3,-,N/A,,Clear,20,2013-06-27 23:27:00
6:53 PM,84.0,57.9,41,29.81,10.0,West,11.5,-,N/A,,Clear,280,2013-06-27 23:53:00
7:53 PM,81.0,71.1,72,29.88,10.0,North,15.0,-,N/A,,Scattered Clouds,10,2013-06-28 00:53:00
8:53 PM,79.0,69.1,72,29.90,10.0,NNE,12.7,-,N/A,,Scattered Clouds,20,2013-06-28 01:53:00
9:53 PM,78.1,66.9,68,29.95,10.0,NNE,12.7,-,N/A,,Partly Cloudy,30,2013-06-28 02:53:00
10:53 PM,77.0,66.9,71,29.96,10.0,NW,6.9,-,N/A,,Clear,310,2013-06-28 03:53:00
11:53 PM,75.0,66.9,76,29.96,10.0,NNW,11.5,-,N/A,,Clear,330,2013-06-28 04:53:00